Time,TemperatureF,DewpointF,PressureIn,WindDirection,WindDirectionDegrees,WindSpeedMPH,WindSpeedGustMPH,Humidity,HourlyPrecipIn,Conditions,Clouds,dailyrainin,SolarRadiationWatts/m^2,SoftwareType,DateUTC
2013-06-29 00:00:00,69.9,56.3,29.85,WNW,286,0.0,0.0,62,0.00,,,0.00,0,Wunderground v.1.15,2013-06-29 05:00:00,
2013-06-29 00:10:00,69.4,55.8,29.85,WNW,286,0.0,0.0,62,0.00,,,0.00,0,Wunderground v.1.15,2013-06-29 05:10:00,
2013-06-29 00:20:00,69.1,56.0,29.86,WNW,286,0.0,0.0,63,0.00,,,0.00,0,Wunderground v.1.15,2013-06-29 05:20:00,
2013-06-29 00:30:00,68.6,56.4,29.86,WNW,286,0.0,0.0,65,0.00,,,0.00,0,Wunderground v.1.15,2013-06-29 05:30:00,
2013-06-29 00:40:00,67.8,56.4,29.85,WNW,286,0.0,0.0,67,0.00,,,0.00,0,Wunderground v.1.15,2013-06-29 05:40:00,
2013-06-29 00:50:00,67.3,56.4,29.85,WNW,286,0.0,0.0,68,0.00,,,0.00,0,Wunderground v.1.15,2013-06-29 05:50:00,
2013-06-29 01:00:00,66.9,56.0,29.85,WNW,286,0.0,0.0,68,0.00,,,0.00,0,Wunderground v.1.15,2013-06-29 06:00:00,
2013-06-29 01:10:00,67.1,55.8,29.85,WNW,286,0.0,0.0,67,0.00,,,0.00,0,Wunderground v.1.15,2013-06-29 06:10:00,
2013-06-29 01:20:00,67.3,55.5,29.85,WNW,286,0.0,0.0,66,0.00,,,0.00,0,Wunderground v.1.15,2013-06-29 06:20:00,
2013-06-29 01:30:00,67.3,56.0,29.85,WNW,286,0.0,0.0,67,0.00,,,0.00,0,Wunderground v.1.15,2013-06-29 06:30:00,
2013-06-29 01:40:00,66.9,56.0,29.84,WNW,286,0.0,0.0,68,0.00,,,0.00,0,Wunderground v.1.15,2013-06-29 06:40:00,
2013-06-29 01:50:00,66.6,55.7,29.85,WNW,286,0.0,0.0,68,0.00,,,0.00,0,Wunderground v.1.15,2013-06-29 06:50:00,
2013-06-29 02:00:00,66.1,56.0,29.85,WNW,286,0.0,0.0,70,0.00,,,0.00,0,Wunderground v.1.15,2013-06-29 07:00:00,
2013-06-29 02:10:00,65.6,55.9,29.85,WNW,286,0.0,0.0,71,0.00,,,0.00,0,Wunderground v.1.15,2013-06-29 07:10:00,
2013-06-29 02:20:00,65.3,56.0,29.84,WNW,286,0.0,0.0,72,0.00,,,0.00,0,Wunderground v.1.15,2013-06-29 07:20:00,
2013-06-29 02:30:00,65.2,55.9,29.84,WNW,286,0.0,0.0,72,0.00,,,0.00,0,Wunderground v.1.15,2013-06-29 07:30:00,
2013-06-29 02:40:00,64.8,55.9,29.84,WNW,286,0.0,0.0,73,0.00,,,0.00,0,Wunderground v.1.15,2013-06-29 07:40:00,
2013-06-29 02:50:00,64.7,56.2,29.84,West,281,0.0,0.0,74,0.00,,,0.00,0,Wunderground v.1.15,2013-06-29 07:50:00,
2013-06-29 03:00:00,64.3,56.2,29.84,West,279,0.0,0.0,75,0.00,,,0.00,0,Wunderground v.1.15,2013-06-29 08:00:00,
2013-06-29 03:10:00,64.2,56.1,29.84,West,277,0.0,0.0,75,0.00,,,0.00,0,Wunderground v.1.15,2013-06-29 08:10:00,
2013-06-29 03:20:00,63.9,56.2,29.84,West,277,0.0,0.0,76,0.00,,,0.00,0,Wunderground v.1.15,2013-06-29 08:20:00,
2013-06-29 03:30:00,63.9,56.2,29.84,West,277,0.0,0.0,76,0.00,,,0.00,0,Wunderground v.1.15,2013-06-29 08:30:00,
2013-06-29 03:40:00,63.7,56.0,29.84,West,274,0.0,0.0,76,0.00,,,0.00,0,Wunderground v.1.15,2013-06-29 08:40:00,
2013-06-29 03:50:00,63.9,56.2,29.84,West,274,0.0,0.0,76,0.00,,,0.00,0,Wunderground v.1.15,2013-06-29 08:50:00,
2013-06-29 04:00:00,64.2,56.1,29.84,West,274,0.0,0.0,75,0.00,,,0.00,0,Wunderground v.1.15,2013-06-29 09:00:00,
2013-06-29 04:10:00,64.0,55.9,29.84,West,273,0.0,0.0,75,0.00,,,0.00,0,Wunderground v.1.15,2013-06-29 09:10:00,
2013-06-29 04:20:00,63.9,56.2,29.84,West,270,0.0,0.0,76,0.00,,,0.00,0,Wunderground v.1.15,2013-06-29 09:20:00,
2013-06-29 04:30:00,64.2,55.7,29.84,West,270,0.0,0.0,74,0.00,,,0.00,0,Wunderground v.1.15,2013-06-29 09:30:00,
2013-06-29 04:40:00,64.3,55.5,29.85,WSW,257,0.0,0.0,73,0.00,,,0.00,0,Wunderground v.1.15,2013-06-29 09:40:00,
2013-06-29 04:50:00,64.7,55.5,29.84,West,259,0.0,0.0,72,0.00,,,0.00,0,Wunderground v.1.15,2013-06-29 09:50:00,
2013-06-29 05:00:00,65.6,55.5,29.84,WSW,256,1.0,1.0,70,0.00,,,0.00,0,Wunderground v.1.15,2013-06-29 10:00:00,
2013-06-29 05:10:00,66.1,55.6,29.84,WNW,303,0.0,0.0,69,0.00,,,0.00,0,Wunderground v.1.15,2013-06-29 10:10:00,
2013-06-29 05:20:00,66.4,55.5,29.85,NNW,330,1.0,1.0,68,0.00,,,0.00,0,Wunderground v.1.15,2013-06-29 10:20:00,
2013-06-29 05:30:00,66.4,55.9,29.85,West,267,0.0,0.0,69,0.00,,,0.00,0,Wunderground v.1.15,2013-06-29 10:30:00,
2013-06-29 05:40:00,66.1,55.6,29.85,WSW,248,0.0,0.0,69,0.00,,,0.00,0,Wunderground v.1.15,2013-06-29 10:40:00,
2013-06-29 05:50:00,65.8,55.7,29.85,NW,323,0.0,0.0,70,0.00,,,0.00,0,Wunderground v.1.15,2013-06-29 10:50:00,
2013-06-29 06:00:00,65.5,55.8,29.85,WNW,288,0.0,0.0,71,0.00,,,0.00,7,Wunderground v.1.15,2013-06-29 11:00:00,
2013-06-29 06:10:00,65.3,55.7,29.86,NW,309,0.0,2.0,71,0.00,,,0.00,14,Wunderground v.1.15,2013-06-29 11:10:00,
2013-06-29 06:20:00,65.6,56.3,29.85,NW,312,0.0,0.0,72,0.00,,,0.00,21,Wunderground v.1.15,2013-06-29 11:20:00,
2013-06-29 06:30:00,66.0,56.3,29.85,WNW,301,0.0,0.0,71,0.00,,,0.00,25,Wunderground v.1.15,2013-06-29 11:30:00,
2013-06-29 06:40:00,66.4,56.3,29.86,WNW,283,1.0,1.0,70,0.00,,,0.00,21,Wunderground v.1.15,2013-06-29 11:40:00,
2013-06-29 06:50:00,66.9,56.4,29.86,WNW,293,1.0,1.0,69,0.00,,,0.00,25,Wunderground v.1.15,2013-06-29 11:50:00,
2013-06-29 07:00:00,67.1,56.6,29.86,West,271,1.0,1.0,69,0.00,,,0.00,26,Wunderground v.1.15,2013-06-29 12:00:00,
2013-06-29 07:10:00,67.6,57.5,29.86,WNW,288,1.0,1.0,70,0.00,,,0.00,28,Wunderground v.1.15,2013-06-29 12:10:00,
2013-06-29 07:20:00,67.9,57.4,29.86,West,269,0.0,0.0,69,0.00,,,0.00,28,Wunderground v.1.15,2013-06-29 12:20:00,
2013-06-29 07:30:00,68.3,58.1,29.86,West,271,0.0,0.0,70,0.00,,,0.00,30,Wunderground v.1.15,2013-06-29 12:30:00,
2013-06-29 07:40:00,68.4,57.8,29.86,NNW,340,1.0,4.0,69,0.00,,,0.00,32,Wunderground v.1.15,2013-06-29 12:40:00,
2013-06-29 07:50:00,68.8,57.8,29.86,WNW,297,3.0,5.0,68,0.00,,,0.00,33,Wunderground v.1.15,2013-06-29 12:50:00,
2013-06-29 08:00:00,69.1,58.1,29.86,NW,321,4.0,4.0,68,0.00,,,0.00,37,Wunderground v.1.15,2013-06-29 13:00:00,
2013-06-29 08:10:00,69.6,58.2,29.86,WNW,282,2.0,6.0,67,0.00,,,0.00,83,Wunderground v.1.15,2013-06-29 13:10:00,
2013-06-29 08:20:00,70.1,58.2,29.87,WNW,290,3.0,3.0,66,0.00,,,0.00,206,Wunderground v.1.15,2013-06-29 13:20:00,
2013-06-29 08:30:00,70.6,58.7,29.87,NNW,332,3.0,3.0,66,0.00,,,0.00,341,Wunderground v.1.15,2013-06-29 13:30:00,
2013-06-29 08:40:00,71.1,59.2,29.86,NW,319,1.0,2.0,66,0.00,,,0.00,420,Wunderground v.1.15,2013-06-29 13:40:00,
2013-06-29 08:50:00,71.3,58.5,29.86,WNW,288,3.0,9.0,64,0.00,,,0.00,450,Wunderground v.1.15,2013-06-29 13:50:00,
2013-06-29 09:00:00,71.6,59.6,29.86,NW,311,3.0,9.0,66,0.00,,,0.00,478,Wunderground v.1.15,2013-06-29 14:00:00,
2013-06-29 09:10:00,71.8,59.4,29.87,NW,312,4.0,4.0,65,0.00,,,0.00,508,Wunderground v.1.15,2013-06-29 14:10:00,
2013-06-29 09:20:00,72.1,59.2,29.86,WNW,290,4.0,4.0,64,0.00,,,0.00,536,Wunderground v.1.15,2013-06-29 14:20:00,
2013-06-29 09:30:00,72.5,59.6,29.86,NW,315,5.0,5.0,64,0.00,,,0.00,566,Wunderground v.1.15,2013-06-29 14:30:00,
2013-06-29 09:40:00,73.2,60.3,29.86,NNW,331,3.0,3.0,64,0.00,,,0.00,594,Wunderground v.1.15,2013-06-29 14:40:00,
2013-06-29 09:50:00,73.7,59.9,29.86,NW,310,3.0,3.0,62,0.00,,,0.00,617,Wunderground v.1.15,2013-06-29 14:50:00,
2013-06-29 10:00:00,74.0,60.2,29.86,NW,325,6.0,6.0,62,0.00,,,0.00,645,Wunderground v.1.15,2013-06-29 15:00:00,
2013-06-29 10:10:00,74.7,60.8,29.86,NW,313,4.0,7.0,62,0.00,,,0.00,677,Wunderground v.1.15,2013-06-29 15:10:00,
2013-06-29 10:20:00,75.1,59.3,29.86,NW,321,4.0,4.0,58,0.00,,,0.00,701,Wunderground v.1.15,2013-06-29 15:20:00,
2013-06-29 10:30:00,75.4,59.1,29.86,NNW,340,6.0,7.0,57,0.00,,,0.00,714,Wunderground v.1.15,2013-06-29 15:30:00,
2013-06-29 10:40:00,75.4,57.6,29.86,NNW,335,9.0,9.0,54,0.00,,,0.00,737,Wunderground v.1.15,2013-06-29 15:40:00,
2013-06-29 10:50:00,75.8,58.0,29.86,NW,323,8.0,8.0,54,0.00,,,0.00,788,Wunderground v.1.15,2013-06-29 15:50:00,
2013-06-29 11:00:00,76.3,56.8,29.86,NNW,329,5.0,13.0,51,0.00,,,0.00,796,Wunderground v.1.15,2013-06-29 16:00:00,
2013-06-29 11:10:00,76.7,57.7,29.86,NNW,327,6.0,14.0,52,0.00,,,0.00,853,Wunderground v.1.15,2013-06-29 16:10:00,
2013-06-29 11:20:00,76.5,57.6,29.86,West,280,6.0,9.0,52,0.00,,,0.00,911,Wunderground v.1.15,2013-06-29 16:20:00,
2013-06-29 11:30:00,77.0,58.0,29.86,NW,306,6.0,7.0,52,0.00,,,0.00,884,Wunderground v.1.15,2013-06-29 16:30:00,
2013-06-29 11:40:00,77.2,57.1,29.86,NNW,343,8.0,12.0,50,0.00,,,0.00,916,Wunderground v.1.15,2013-06-29 16:40:00,
2013-06-29 11:50:00,77.2,57.1,29.86,NNW,345,8.0,11.0,50,0.00,,,0.00,937,Wunderground v.1.15,2013-06-29 16:50:00,
2013-06-29 12:00:00,77.6,56.4,29.86,NW,320,9.0,9.0,48,0.00,,,0.00,1025,Wunderground v.1.15,2013-06-29 17:00:00,
2013-06-29 12:10:00,78.1,57.4,29.85,NNW,348,9.0,11.0,49,0.00,,,0.00,1086,Wunderground v.1.15,2013-06-29 17:10:00,
2013-06-29 12:20:00,77.2,57.7,29.86,NNE,29,9.0,9.0,51,0.00,,,0.00,290,Wunderground v.1.15,2013-06-29 17:20:00,
2013-06-29 12:30:00,76.5,57.6,29.86,North,355,6.0,6.0,52,0.00,,,0.00,248,Wunderground v.1.15,2013-06-29 17:30:00,
2013-06-29 12:40:00,76.8,56.2,29.86,NNW,345,7.0,7.0,49,0.00,,,0.00,1062,Wunderground v.1.15,2013-06-29 17:40:00,
2013-06-29 12:50:00,78.5,57.2,29.86,North,5,9.0,14.0,48,0.00,,,0.00,1053,Wunderground v.1.15,2013-06-29 17:50:00,
2013-06-29 13:00:00,78.5,56.6,29.86,North,360,9.0,9.0,47,0.00,,,0.00,1056,Wunderground v.1.15,2013-06-29 18:00:00,
2013-06-29 13:10:00,78.5,56.6,29.85,NNW,331,6.0,19.0,47,0.00,,,0.00,1074,Wunderground v.1.15,2013-06-29 18:10:00,
2013-06-29 13:20:00,78.6,57.3,29.85,North,9,7.0,9.0,48,0.00,,,0.00,1023,Wunderground v.1.15,2013-06-29 18:20:00,
2013-06-29 13:30:00,78.8,57.4,29.85,NNW,336,6.0,9.0,48,0.00,,,0.00,343,Wunderground v.1.15,2013-06-29 18:30:00,
2013-06-29 13:40:00,77.7,57.0,29.85,NNE,32,7.0,7.0,49,0.00,,,0.00,1151,Wunderground v.1.15,2013-06-29 18:40:00,
2013-06-29 13:50:00,78.6,56.7,29.85,NW,311,7.0,12.0,47,0.00,,,0.00,1132,Wunderground v.1.15,2013-06-29 18:50:00,
2013-06-29 14:00:00,77.6,55.8,29.85,North,10,8.0,14.0,47,0.00,,,0.00,315,Wunderground v.1.15,2013-06-29 19:00:00,
2013-06-29 14:10:00,78.6,56.1,29.85,North,11,9.0,9.0,46,0.00,,,0.00,1016,Wunderground v.1.15,2013-06-29 19:10:00,
2013-06-29 14:20:00,78.3,56.4,29.85,NW,325,9.0,12.0,47,0.00,,,0.00,193,Wunderground v.1.15,2013-06-29 19:20:00,
2013-06-29 14:30:00,78.8,57.4,29.85,NNW,333,8.0,8.0,48,0.00,,,0.00,1063,Wunderground v.1.15,2013-06-29 19:30:00,
2013-06-29 14:40:00,79.6,56.4,29.85,North,5,8.0,9.0,45,0.00,,,0.00,1013,Wunderground v.1.15,2013-06-29 19:40:00,
2013-06-29 14:50:00,79.8,57.2,29.84,NW,306,8.0,8.0,46,0.00,,,0.00,343,Wunderground v.1.15,2013-06-29 19:50:00,
2013-06-29 15:00:00,78.8,58.0,29.84,North,9,7.0,7.0,49,0.00,,,0.00,954,Wunderground v.1.15,2013-06-29 20:00:00,
2013-06-29 15:10:00,79.0,57.0,29.85,North,350,6.0,6.0,47,0.00,,,0.00,200,Wunderground v.1.15,2013-06-29 20:10:00,
2013-06-29 15:20:00,79.4,56.8,29.85,NW,314,8.0,9.0,46,0.00,,,0.00,330,Wunderground v.1.15,2013-06-29 20:20:00,
2013-06-29 15:30:00,80.1,58.0,29.85,NNW,328,7.0,15.0,47,0.00,,,0.00,1000,Wunderground v.1.15,2013-06-29 20:30:00,
2013-06-29 15:40:00,79.9,57.9,29.84,NNW,327,7.0,11.0,47,0.00,,,0.00,954,Wunderground v.1.15,2013-06-29 20:40:00,
2013-06-29 15:50:00,79.9,56.7,29.84,NNE,20,10.0,10.0,45,0.00,,,0.00,833,Wunderground v.1.15,2013-06-29 20:50:00,
2013-06-29 16:00:00,79.4,56.2,29.84,NNE,13,14.0,18.0,45,0.00,,,0.00,872,Wunderground v.1.15,2013-06-29 21:00:00,
2013-06-29 16:10:00,79.4,57.4,29.84,NNE,19,11.0,12.0,47,0.00,,,0.00,758,Wunderground v.1.15,2013-06-29 21:10:00,
2013-06-29 16:20:00,79.8,55.9,29.84,North,360,7.0,9.0,44,0.00,,,0.00,765,Wunderground v.1.15,2013-06-29 21:20:00,
2013-06-29 16:30:00,79.9,56.0,29.84,NW,319,7.0,11.0,44,0.00,,,0.00,796,Wunderground v.1.15,2013-06-29 21:30:00,
2013-06-29 16:40:00,79.8,57.8,29.83,North,360,10.0,10.0,47,0.00,,,0.00,724,Wunderground v.1.15,2013-06-29 21:40:00,
2013-06-29 16:50:00,78.6,57.8,29.84,NNE,17,13.0,13.0,49,0.00,,,0.00,186,Wunderground v.1.15,2013-06-29 21:50:00,
2013-06-29 17:00:00,79.2,59.0,29.84,NNE,24,11.0,11.0,50,0.00,,,0.00,768,Wunderground v.1.15,2013-06-29 22:00:00,
2013-06-29 17:10:00,79.2,59.0,29.84,NNE,20,15.0,15.0,50,0.00,,,0.00,684,Wunderground v.1.15,2013-06-29 22:10:00,
2013-06-29 17:20:00,78.3,58.1,29.85,NE,37,10.0,10.0,50,0.00,,,0.00,165,Wunderground v.1.15,2013-06-29 22:20:00,
2013-06-29 17:30:00,78.3,56.4,29.85,North,5,11.0,11.0,47,0.00,,,0.00,647,Wunderground v.1.15,2013-06-29 22:30:00,
2013-06-29 17:40:00,78.5,56.0,29.85,NNE,28,12.0,15.0,46,0.00,,,0.00,577,Wunderground v.1.15,2013-06-29 22:40:00,
2013-06-29 17:50:00,77.7,60.2,29.85,NE,40,11.0,11.0,55,0.00,,,0.00,543,Wunderground v.1.15,2013-06-29 22:50:00,
2013-06-29 18:00:00,76.8,58.9,29.85,NNE,19,12.0,12.0,54,0.00,,,0.00,186,Wunderground v.1.15,2013-06-29 23:00:00,
2013-06-29 18:10:00,75.8,59.5,29.85,NE,53,11.0,11.0,57,0.00,,,0.00,244,Wunderground v.1.15,2013-06-29 23:10:00,
2013-06-29 18:20:00,75.8,59.0,29.85,NNE,20,10.0,10.0,56,0.00,,,0.00,162,Wunderground v.1.15,2013-06-29 23:20:00,
2013-06-29 18:30:00,75.6,59.3,29.85,NNE,28,7.0,7.0,57,0.00,,,0.00,156,Wunderground v.1.15,2013-06-29 23:30:00,
2013-06-29 18:40:00,75.6,57.8,29.86,NNE,17,8.0,8.0,54,0.00,,,0.00,237,Wunderground v.1.15,2013-06-29 23:40:00,
2013-06-29 18:50:00,76.3,57.9,29.86,NNE,26,9.0,11.0,53,0.00,,,0.00,343,Wunderground v.1.15,2013-06-29 23:50:00,
2013-06-29 19:00:00,76.1,56.7,29.86,NE,34,9.0,9.0,51,0.00,,,0.00,265,Wunderground v.1.15,2013-06-30 00:00:00,
2013-06-29 19:10:00,76.1,56.7,29.86,North,11,6.0,6.0,51,0.00,,,0.00,237,Wunderground v.1.15,2013-06-30 00:10:00,
2013-06-29 19:20:00,76.1,57.2,29.85,North,5,4.0,4.0,52,0.00,,,0.00,206,Wunderground v.1.15,2013-06-30 00:20:00,
2013-06-29 19:30:00,76.0,57.6,29.85,NNE,19,5.0,5.0,53,0.00,,,0.00,176,Wunderground v.1.15,2013-06-30 00:30:00,
2013-06-29 19:40:00,75.8,56.9,29.86,North,9,5.0,5.0,52,0.00,,,0.00,149,Wunderground v.1.15,2013-06-30 00:40:00,
2013-06-29 19:50:00,75.8,57.4,29.86,NNE,18,2.0,3.0,53,0.00,,,0.00,125,Wunderground v.1.15,2013-06-30 00:50:00,
2013-06-29 20:00:00,75.6,55.1,29.86,NE,44,3.0,15.0,49,0.00,,,0.00,98,Wunderground v.1.15,2013-06-30 01:00:00,
2013-06-29 20:10:00,75.3,54.3,29.86,NNE,21,7.0,7.0,48,0.00,,,0.00,69,Wunderground v.1.15,2013-06-30 01:10:00,
2013-06-29 20:20:00,74.9,54.4,29.86,North,11,4.0,5.0,49,0.00,,,0.00,35,Wunderground v.1.15,2013-06-30 01:20:00,
2013-06-29 20:30:00,74.4,54.0,29.86,North,11,4.0,5.0,49,0.00,,,0.00,25,Wunderground v.1.15,2013-06-30 01:30:00,
2013-06-29 20:40:00,74.2,53.2,29.86,North,10,2.0,5.0,48,0.00,,,0.00,14,Wunderground v.1.15,2013-06-30 01:40:00,
2013-06-29 20:50:00,73.9,53.5,29.86,NNE,15,2.0,2.0,49,0.00,,,0.00,9,Wunderground v.1.15,2013-06-30 01:50:00,
2013-06-29 21:00:00,73.2,54.0,29.86,NNE,15,1.0,1.0,51,0.00,,,0.00,5,Wunderground v.1.15,2013-06-30 02:00:00,
2013-06-29 21:10:00,72.5,53.9,29.86,NNE,15,0.0,0.0,52,0.00,,,0.00,0,Wunderground v.1.15,2013-06-30 02:10:00,
2013-06-29 21:20:00,72.0,54.4,29.86,NNE,15,0.0,0.0,54,0.00,,,0.00,0,Wunderground v.1.15,2013-06-30 02:20:00,
2013-06-29 21:30:00,71.1,55.1,29.86,NNE,15,0.0,0.0,57,0.00,,,0.00,0,Wunderground v.1.15,2013-06-30 02:30:00,
2013-06-29 21:40:00,70.1,55.6,29.87,NNE,15,0.0,0.0,60,0.00,,,0.00,0,Wunderground v.1.15,2013-06-30 02:40:00,
2013-06-29 21:50:00,69.1,55.5,29.88,NNE,15,0.0,0.0,62,0.00,,,0.00,0,Wunderground v.1.15,2013-06-30 02:50:00,
2013-06-29 22:00:00,68.3,55.6,29.88,NNE,15,0.0,0.0,64,0.00,,,0.00,0,Wunderground v.1.15,2013-06-30 03:00:00,
2013-06-29 22:10:00,67.6,55.4,29.88,NNE,15,0.0,0.0,65,0.00,,,0.00,0,Wunderground v.1.15,2013-06-30 03:10:00,
2013-06-29 22:20:00,67.1,55.4,29.88,NNE,15,0.0,0.0,66,0.00,,,0.00,0,Wunderground v.1.15,2013-06-30 03:20:00,
2013-06-29 22:30:00,66.1,56.8,29.88,ENE,77,0.0,0.0,72,0.00,,,0.00,0,Wunderground v.1.15,2013-06-30 03:30:00,
2013-06-29 22:40:00,65.8,56.5,29.90,ENE,77,0.0,0.0,72,0.00,,,0.00,0,Wunderground v.1.15,2013-06-30 03:40:00,
2013-06-29 22:50:00,65.6,56.7,29.90,ENE,77,0.0,0.0,73,0.00,,,0.00,0,Wunderground v.1.15,2013-06-30 03:50:00,
2013-06-29 23:00:00,65.2,57.1,29.90,ENE,77,0.0,0.0,75,0.00,,,0.00,0,Wunderground v.1.15,2013-06-30 04:00:00,
2013-06-29 23:10:00,64.8,56.7,29.90,ENE,77,0.0,0.0,75,0.00,,,0.00,0,Wunderground v.1.15,2013-06-30 04:10:00,
2013-06-29 23:20:00,64.7,58.0,29.91,ENE,77,0.0,0.0,79,0.00,,,0.00,0,Wunderground v.1.15,2013-06-30 04:20:00,
2013-06-29 23:30:00,64.0,58.1,29.91,ENE,77,0.0,0.0,81,0.00,,,0.00,0,Wunderground v.1.15,2013-06-30 04:30:00,
2013-06-29 23:40:00,63.4,57.8,29.91,ENE,77,0.0,0.0,82,0.00,,,0.00,0,Wunderground v.1.15,2013-06-30 04:40:00,
2013-06-29 23:50:00,63.1,57.9,29.91,ENE,77,0.0,0.0,83,0.00,,,0.00,0,Wunderground v.1.15,2013-06-30 04:50:00,